Other Public Products
Issued by NWS Charleston, SC

Home | Current Version | Previous Version | Text Only | Print | Product List | Glossary On
Versions: 1 2 3 4 5 6 7 8 9 10 11 12 13 14 15 16 17 18 19 20 21 22 23 24 25 26 27 28 29 30 31 32 33 34 35 36 37 38 39 40 41 42 43 44 45 46 47 48 49 50
000
FPUS82 KCHS 131226
OPUCHS

TEST...KCHS/KSAV Gateway Observations...TEST
National Weather Service Charleston SC
700 AM EST WED DEC 13 2017

NOTE: "fair" indicates few or no clouds below 12,000 feet with no
significant weather and/or obstructions to visibility.

SCZ050-WAZ558-NCZ071-TXZ119-213-PAZ071-DCZ001-FLZ074-172-MI076-
NYZ176-178-MAZ016-IL014-TNZ027-NJZ106-GAZ044-MD014-131300-

...Gateway Observations for Charleston International...

CITY           SKY/WX    TMP DP  RH WIND       PRES   REMARKS
Chas Airport   CLEAR     33  25  72 NW8       30.02R WCI  26
6HR MIN TEMP:  33; 6HR MAX TEMP:  42;

Seattle        PTCLDY    37  35  92 NE8       30.41S WCI  31
6HR MIN TEMP:  35; 6HR MAX TEMP:  43;

Charlotte      CLEAR     28   6  39 CALM      29.97R
6HR MIN TEMP:  24; 6HR MAX TEMP:  32;

Dallas DFW     PTCLDY    36  28  73 S7        30.05S WCI  30
6HR MIN TEMP:  35; 6HR MAX TEMP:  42;

Dallas Love    PTCLDY    42  29  59 CALM      30.07S
6HR MIN TEMP:  39; 6HR MAX TEMP:  44;

Philladelphia  PTCLDY    22   3  44 W20G30    29.68R WCI   7
6HR MIN TEMP:  21; 6HR MAX TEMP:  23;

Wash National  PTCLDY    23  -1  35 W18G36    29.84R WCI   9
6HR MIN TEMP:  23; 6HR MAX TEMP:  25;

Baltimore      PTCLDY    20   3  48 W14G26    29.79R WCI   7
6HR MIN TEMP:  20; 6HR MAX TEMP:  22;

Miami          PTCLDY    55  44  66 N5        30.09R
6HR MIN TEMP:  55; 6HR MAX TEMP:  64;

Detroit        CLOUDY    18   9  68 SW7       29.84F WCI   9
6HR MIN TEMP:  14; 6HR MAX TEMP:  18;

Newark         PTCLDY    20   5  52 W22G30    29.55R WCI   3
6HR MIN TEMP:  20; 6HR MAX TEMP:  27;

Laguardia      PTCLDY    22   7  52 W25G31    29.53R WCI   5
6HR MIN TEMP:  22; 6HR MAX TEMP:  30;

J F K          PTCLDY    20   6  55 W25G37    29.54R WCI   2
6HR MIN TEMP:  20; 6HR MAX TEMP:  28;

Boston Logan   PTCLDY    23  12  62 W23G30    29.26S WCI   7
6HR MIN TEMP:  23; 6HR MAX TEMP:  34;

Ft. Lauderdale PTCLDY    51  41  68 NW7       30.07R
6HR MIN TEMP:  51; 6HR MAX TEMP:  62;

Chicago O`Hare CLOUDY    25  12  58 S12       29.68F WCI  14
6HR MIN TEMP:  22; 6HR MAX TEMP:  25;

Chicago Midway CLOUDY    26  11  52 S12       29.70F WCI  16
6HR MIN TEMP:  22; 6HR MAX TEMP:  26;

Houston Bush   PTCLDY    33  32  96 CALM      30.17F
6HR MIN TEMP:  33; 6HR MAX TEMP:  41;

Houston Hobby  PTCLDY    36  34  92 CALM      30.17S
6HR MIN TEMP:  35; 6HR MAX TEMP:  43;

Nashville      CLOUDY    21  13  71 S6        30.04S WCI  13
6HR MIN TEMP:  20; 6HR MAX TEMP:  27;

Atlanta        CLEAR     29  10  45 NW12      30.04R WCI  19
6HR MIN TEMP:  29; 6HR MAX TEMP:  34;


$$

GAZ044-118-TXZ119-213-NCZ071-DCZ001-MDZ014-506-PAZ021-071-NJZ106-
NYZ176-178-MAZ106-OHZ011-021-055-MIZ076-KYZ091-ILZ014-INZ047-
MNZ060-ONZ431-131300-

...Gateway Observations for Savannah International...

CITY           SKY/WX    TMP DP  RH WIND       PRES   REMARKS
Savannah Arpt  CLEAR     36  21  54 NW8       30.05R WCI  30
6HR MIN TEMP:  36; 6HR MAX TEMP:  42;

Atlanta        CLEAR     29  10  45 NW12      30.04R WCI  19
6HR MIN TEMP:  29; 6HR MAX TEMP:  34;

Charlotte      CLEAR     28   6  39 CALM      29.97R
6HR MIN TEMP:  24; 6HR MAX TEMP:  32;

Dallas DFW     PTCLDY    36  28  73 S7        30.05S WCI  30
6HR MIN TEMP:  35; 6HR MAX TEMP:  42;

Houston Bush   PTCLDY    33  32  96 CALM      30.17F
6HR MIN TEMP:  33; 6HR MAX TEMP:  41;

Wash National  PTCLDY    23  -1  35 W18G36    29.84R WCI   9
6HR MIN TEMP:  23; 6HR MAX TEMP:  25;

Wash Dulles    PTCLDY    20   1  43 NW17G29   29.84R WCI   5
6HR MIN TEMP:  20; 6HR MAX TEMP:  21;

Baltimore      PTCLDY    20   3  48 W14G26    29.79R WCI   7
6HR MIN TEMP:  20; 6HR MAX TEMP:  22;

Philadelphia   PTCLDY    22   3  44 W20G30    29.68R WCI   7
6HR MIN TEMP:  21; 6HR MAX TEMP:  23;

Newark         PTCLDY    20   5  52 W22G30    29.55R WCI   3
6HR MIN TEMP:  20; 6HR MAX TEMP:  27;

Laguardia      PTCLDY    22   7  52 W25G31    29.53R WCI   5
6HR MIN TEMP:  22; 6HR MAX TEMP:  30;

J F K          PTCLDY    20   6  55 W25G37    29.54R WCI   2
6HR MIN TEMP:  20; 6HR MAX TEMP:  28;

Boston         PTCLDY    23  12  62 W23G30    29.26S WCI   7
6HR MIN TEMP:  23; 6HR MAX TEMP:  34;

Pittsburg      CLOUDY    17   4  56 W12G20    29.82R WCI   4
6HR MIN TEMP:  15; 6HR MAX TEMP:  17;

Akron          CLOUDY    15   4  61 W8        29.84R WCI   4
6HR MIN TEMP:  14; 6HR MAX TEMP:  16; 6HR PCP: TRACE;

Cleveland      LGT SNOW  17  12  80 SW6       29.87F WCI   9
6HR MIN TEMP:  17; 6HR MAX TEMP:  20; 6HR PCP:  0.01;

Cincinnati     CLOUDY    20  12  71 SW7       29.92F WCI  11
6HR MIN TEMP:  15; 6HR MAX TEMP:  20;

Columbus       CLOUDY    16  10  77 SW8       29.93S WCI   6
Detroit        CLOUDY    18   9  68 SW7       29.84F WCI   9
6HR MIN TEMP:  14; 6HR MAX TEMP:  18;

Chicago O`Hare CLOUDY    25  12  58 S12       29.68F WCI  14
6HR MIN TEMP:  22; 6HR MAX TEMP:  25;

Minneapolis    CLOUDY    30  26  85 N5        29.36R WCI  25
6HR MIN TEMP:  24; 6HR MAX TEMP:  30;

Indianapolis   CLOUDY    22   8  55 S10       29.85F WCI  11
6HR MIN TEMP:  16; 6HR MAX TEMP:  22;

Toronto Canada PTCLDY    10   1  67 NW14      29.69R WCI  -5

$$




USA.gov is the U.S. government's official web portal to all federal, state and local government web resources and services.